Temp
-8 -8 -8 -8 -8 -7 -7 -8 -8 -8 -8 -8 -8 -8 -7 -8 -8 -8 -8 -8 -7 -7 -7 -7 -7 -6 -6 -6 -7 -7 -8 -8 -8 -10 -10 -10 -9 -9 -9 -10 -10 -10 -10 -10 -10
-8 -8 -8 -8 -8 -8 -8 -8 -8 -8 -8 -8 -8 -8 -8 -8 -8 -8 -8 -8 -7 -7 -7 -7 -7 -7 -7 -6 -7 -7 -7 -7 -7 -9 -10 -10 -9 -9 -9 -10 -10 -10 -10 -10 -10
-8 -8 -8 -8 -8 -8 -8 -8 -8 -8 -8 -8 -8 -8 -8 -8 -8 -8 -8 -8 -7 -7 -7 -7 -7 -7 -7 -7 -7 -7 -7 -7 -7 -8 -9 -10 -9 -9 -9 -10 -10 -11 -11 -10 -11
-8 -8 -8 -8 -8 -8 -8 -8 -8 -8 -8 -8 -8 -8 -8 -8 -8 -8 -8 -7 -7 -7 -7 -7 -7 -8 -8 -7 -7 -8 -7 -8 -8 -8 -9 -9 -9 -9 -9 -10 -11 -11 -11 -11 -11
-8 -8 -8 -8 -8 -8 -8 -9 -9 -8 -8 -8 -8 -8 -8 -8 -8 -8 -8 -7 -7 -7 -7 -7 -7 -8 -8 -8 -8 -8 -8 -8 -8 -8 -9 -10 -10 -9 -9 -10 -11 -11 -11 -12 -12
-8 -8 -8 -9 -8 -8 -9 -8 -8 -8 -8 -8 -8 -8 -8 -8 -8 -8 -7 -7 -7 -7 -7 -7 -7 -7 -8 -8 -8 -9 -9 -9 -9 -10 -10 -10 -9 -9 -10 -10 -11 -11 -11 -12 -12
-8 -8 -8 -8 -8 -8 -8 -8 -8 -8 -8 -8 -8 -8 -8 -8 -8 -8 -8 -7 -7 -7 -8 -8 -8 -8 -8 -8 -9 -9 -9 -10 -10 -10 -9 -9 -9 -10 -11 -11 -12 -11 -12 -12 -11
-9 -9 -9 -8 -8 -8 -8 -8 -8 -8 -8 -8 -8 -8 -8 -8 -8 -7 -8 -7 -8 -8 -8 -8 -8 -8 -8 -8 -8 -9 -10 -10 -9 -9 -9 -9 -9 -11 -11 -11 -12 -12 -12 -12 -11
-9 -9 -9 -9 -9 -8 -8 -8 -8 -8 -8 -8 -8 -8 -8 -8 -8 -8 -8 -8 -8 -8 -8 -8 -8 -8 -8 -8 -9 -9 -9 -9 -10 -10 -10 -10 -10 -11 -11 -11 -12 -12 -12 -12 -12
-9 -9 -9 -9 -9 -9 -8 -8 -8 -8 -8 -8 -8 -8 -8 -8 -8 -8 -8 -8 -8 -8 -8 -8 -8 -8 -9 -9 -9 -9 -9 -9 -10 -11 -11 -11 -11 -11 -11 -12 -11 -12 -12 -12 -12
-9 -9 -9 -9 -9 -9 -9 -9 -9 -9 -8 -8 -8 -8 -8 -8 -8 -8 -9 -8 -8 -8 -8 -9 -9 -9 -9 -9 -10 -10 -10 -10 -11 -11 -11 -11 -11 -11 -11 -12 -12 -12 -12 -12 -12
-9 -9 -9 -9 -9 -9 -9 -9 -9 -9 -9 -9 -9 -9 -9 -8 -8 -9 -9 -9 -9 -9 -9 -9 -9 -9 -9 -9 -10 -10 -10 -11 -11 -11 -11 -11 -12 -12 -12 -12 -12 -12 -12 -13 -13
-9 -9 -9 -9 -9 -9 -9 -9 -9 -9 -9 -9 -9 -9 -9 -9 -9 -9 -9 -9 -9 -9 -9 -9 -9 -10 -10 -10 -10 -10 -10 -10 -11 -11 -11 -12 -12 -13 -13 -13 -13 -13 -13 -13 -13
-9 -9 -9 -9 -9 -9 -9 -9 -9 -9 -9 -9 -9 -9 -9 -9 -9 -9 -9 -9 -10 -10 -10 -10 -10 -10 -10 -10 -11 -11 -12 -11 -11 -12 -12 -12 -12 -13 -13 -13 -13 -13 -13 -13 -13
-9 -9 -9 -10 -10 -9 -9 -9 -10 -9 -10 -9 -9 -9 -9 -10 -9 -9 -10 -10 -10 -10 -10 -10 -10 -10 -10 -10 -11 -11 -11 -11 -11 -11 -12 -12 -12 -12 -12 -12 -13 -13 -13 -13 -13
-9 -9 -9 -10 -9 -10 -10 -10 -10 -10 -10 -10 -9 -10 -10 -10 -10 -10 -10 -10 -10 -10 -10 -11 -11 -11 -11 -11 -11 -11 -11 -11 -11 -11 -11 -12 -12 -12 -12 -12 -12 -12 -13 -13 -13
-9 -9 -9 -10 -9 -10 -10 -10 -10 -10 -10 -10 -10 -10 -10 -10 -10 -10 -10 -11 -11 -11 -11 -11 -11 -12 -12 -12 -12 -12 -12 -11 -11 -12 -12 -12 -12 -12 -12 -13 -13 -13 -13 -13 -13
-10 -10 -9 -10 -10 -10 -10 -10 -10 -10 -10 -10 -10 -10 -10 -10 -10 -10 -11 -11 -11 -11 -11 -12 -12 -12 -12 -12 -12 -11 -11 -12 -11 -11 -12 -12 -11 -12 -12 -12 -13 -13 -13 -13 -13
-10 -10 -10 -10 -10 -10 -10 -11 -10 -10 -10 -10 -10 -11 -11 -11 -11 -11 -11 -11 -11 -11 -11 -11 -11 -12 -12 -12 -13 -12 -12 -12 -12 -12 -12 -12 -12 -12 -12 -13 -13 -13 -13 -14 -14
-10 -10 -10 -10 -10 -10 -10 -11 -10 -10 -10 -11 -11 -11 -11 -11 -12 -12 -12 -12 -12 -12 -12 -12 -12 -12 -13 -13 -12 -12 -12 -13 -13 -13 -13 -12 -12 -12 -13 -13 -14 -14 -14 -14 -15
-10 -10 -10 -10 -10 -10 -10 -11 -11 -11 -11 -12 -12 -12 -12 -12 -12 -12 -12 -12 -12 -12 -12 -12 -13 -13 -13 -13 -12 -13 -13 -13 -13 -13 -13 -13 -13 -13 -13 -14 -14 -14 -14 -15 -15
-11 -10 -10 -11 -10 -10 -11 -11 -11 -11 -11 -11 -12 -12 -12 -12 -13 -13 -13 -13 -13 -13 -13 -13 -13 -13 -13 -13 -13 -13 -13 -13 -13 -13 -14 -14 -13 -13 -14 -14 -14 -15 -15 -16 -15
-11 -11 -11 -11 -11 -11 -11 -11 -11 -12 -11 -11 -12 -12 -12 -12 -13 -13 -13 -13 -14 -13 -13 -13 -13 -13 -13 -13 -14 -14 -14 -13 -14 -14 -14 -14 -14 -14 -14 -14 -15 -15 -15 -16 -16
-12 -11 -11 -11 -11 -12 -12 -12 -12 -12 -12 -12 -12 -12 -12 -12 -13 -13 -13 -13 -13 -13 -13 -13 -13 -14 -14 -14 -14 -14 -14 -14 -14 -14 -14 -15 -14 -15 -15 -15 -15 -15 -15 -16 -15
-12 -12 -12 -12 -12 -12 -12 -12 -12 -12 -12 -13 -13 -13 -12 -12 -13 -13 -13 -13 -13 -13 -13 -13 -13 -13 -14 -14 -14 -14 -14 -14 -14 -14 -14 -15 -15 -15 -15 -15 -15 -16 -16 -16 -17
-12 -12 -12 -12 -11 -12 -12 -12 -13 -13 -13 -13 -13 -13 -13 -13 -13 -13 -14 -14 -14 -13 -13 -13 -13 -13 -14 -14 -14 -14 -14 -14 -14 -14 -15 -15 -15 -15 -15 -15 -16 -16 -16 -16 -16
-12 -12 -12 -12 -12 -12 -12 -12 -12 -13 -14 -14 -14 -14 -14 -13 -13 -14 -14 -14 -14 -14 -14 -14 -14 -14 -14 -14 -14 -14 -15 -15 -14 -15 -15 -15 -15 -16 -16 -16 -16 -16 -16 -17 -17
Height
5866 5867 5866 5866 5866 5867 5869 5871 5873 5875 5877 5879 5881 5883 5884 5884 5885 5886 5887 5888 5888 5889 5888 5888 5889 5889 5889 5889 5889 5889 5890 5890 5890 5892 5891 5891 5893 5894 5895 5895 5895 5896 5897 5895 5893
5866 5866 5866 5865 5866 5867 5869 5871 5873 5875 5877 5879 5881 5882 5883 5884 5885 5886 5887 5887 5887 5887 5887 5888 5888 5889 5890 5889 5889 5889 5889 5889 5889 5889 5889 5889 5890 5890 5892 5892 5891 5893 5894 5892 5891
5865 5865 5865 5865 5866 5867 5869 5871 5873 5875 5877 5879 5881 5882 5882 5884 5885 5886 5886 5886 5886 5886 5887 5887 5888 5889 5889 5889 5888 5889 5889 5888 5889 5889 5889 5889 5888 5887 5886 5887 5888 5889 5890 5890 5888
5865 5864 5865 5866 5867 5868 5870 5872 5874 5876 5878 5879 5880 5881 5882 5883 5886 5885 5885 5885 5885 5886 5886 5886 5887 5888 5889 5888 5888 5888 5888 5888 5888 5888 5888 5888 5886 5886 5885 5884 5884 5885 5887 5887 5887
5864 5865 5865 5866 5868 5869 5871 5873 5875 5876 5878 5879 5880 5880 5881 5883 5884 5884 5884 5884 5885 5885 5885 5885 5885 5886 5886 5886 5886 5886 5887 5886 5887 5886 5886 5886 5884 5883 5884 5883 5883 5882 5883 5884 5883
5865 5866 5866 5867 5869 5870 5872 5873 5875 5876 5877 5878 5879 5879 5880 5882 5882 5883 5883 5884 5884 5884 5884 5884 5884 5884 5885 5885 5884 5884 5885 5884 5884 5883 5883 5883 5882 5881 5880 5880 5881 5881 5880 5880 5880
5866 5867 5867 5868 5869 5870 5872 5873 5875 5876 5876 5877 5878 5879 5880 5882 5881 5882 5882 5883 5882 5882 5882 5883 5883 5883 5883 5884 5883 5883 5884 5883 5881 5880 5878 5878 5879 5878 5876 5877 5879 5878 5877 5876 5876
5866 5867 5868 5869 5869 5871 5872 5873 5874 5875 5876 5877 5878 5878 5879 5880 5881 5881 5881 5881 5881 5882 5882 5881 5881 5881 5881 5882 5882 5881 5881 5880 5879 5877 5875 5874 5876 5875 5873 5874 5874 5874 5874 5872 5871
5866 5867 5868 5869 5870 5871 5872 5873 5874 5875 5876 5877 5877 5878 5879 5880 5880 5880 5880 5880 5881 5881 5881 5880 5880 5880 5879 5879 5879 5878 5877 5877 5877 5874 5872 5871 5871 5870 5867 5867 5869 5869 5868 5867 5865
5866 5867 5868 5869 5870 5871 5872 5873 5874 5875 5876 5876 5877 5879 5879 5879 5878 5878 5879 5879 5879 5879 5879 5879 5878 5877 5877 5877 5877 5875 5875 5875 5874 5872 5870 5868 5867 5866 5866 5863 5863 5863 5862 5862 5861
5865 5866 5867 5868 5869 5870 5871 5872 5874 5875 5875 5876 5876 5876 5876 5877 5877 5876 5876 5876 5876 5876 5876 5876 5876 5876 5876 5875 5874 5873 5872 5871 5869 5868 5867 5866 5863 5862 5861 5860 5857 5855 5856 5855 5855
5864 5866 5866 5867 5868 5869 5869 5870 5870 5872 5873 5873 5873 5874 5874 5874 5875 5875 5875 5876 5876 5875 5875 5875 5874 5874 5873 5872 5871 5870 5868 5867 5866 5863 5862 5859 5858 5856 5855 5854 5853 5850 5850 5849 5847
5863 5864 5865 5866 5867 5867 5867 5868 5868 5869 5870 5872 5872 5873 5873 5873 5873 5873 5873 5873 5873 5873 5872 5872 5872 5871 5870 5869 5868 5866 5865 5863 5862 5859 5856 5853 5851 5850 5851 5851 5849 5847 5845 5844 5842
5862 5863 5864 5865 5867 5865 5866 5866 5867 5867 5869 5871 5871 5871 5871 5871 5872 5871 5870 5871 5871 5871 5869 5871 5869 5868 5867 5866 5865 5863 5860 5858 5857 5855 5853 5851 5847 5846 5846 5846 5846 5845 5843 5841 5839
5860 5861 5862 5863 5863 5864 5866 5866 5866 5867 5867 5868 5868 5868 5869 5871 5871 5870 5869 5869 5870 5869 5868 5869 5866 5865 5864 5863 5861 5859 5856 5854 5852 5850 5848 5845 5843 5842 5840 5839 5838 5837 5836 5834 5831
5857 5859 5860 5861 5861 5862 5862 5863 5865 5867 5865 5866 5866 5867 5868 5867 5867 5867 5867 5868 5868 5867 5865 5865 5864 5864 5862 5860 5857 5855 5852 5849 5847 5845 5843 5840 5838 5837 5835 5832 5830 5829 5827 5825 5822
5855 5856 5857 5858 5859 5859 5859 5860 5863 5863 5865 5865 5865 5865 5865 5866 5866 5865 5864 5866 5867 5866 5863 5861 5862 5860 5859 5857 5853 5850 5847 5844 5843 5841 5838 5835 5832 5831 5829 5827 5824 5822 5820 5818 5815
5851 5853 5855 5855 5856 5857 5856 5858 5860 5861 5861 5862 5862 5862 5863 5862 5862 5862 5862 5863 5863 5862 5861 5860 5859 5856 5854 5850 5847 5845 5842 5839 5834 5833 5832 5829 5826 5824 5822 5820 5817 5815 5813 5811 5808
5847 5849 5851 5852 5853 5853 5854 5854 5857 5857 5858 5857 5858 5858 5859 5859 5860 5860 5859 5858 5857 5857 5857 5855 5854 5851 5848 5844 5842 5837 5835 5834 5829 5827 5824 5823 5822 5818 5815 5812 5810 5808 5806 5803 5799
5843 5845 5847 5848 5849 5850 5851 5850 5852 5853 5853 5853 5853 5854 5854 5855 5855 5855 5855 5854 5852 5852 5852 5851 5848 5847 5844 5842 5837 5832 5829 5827 5824 5820 5816 5815 5813 5812 5809 5806 5802 5799 5796 5794 5790
5839 5842 5844 5845 5846 5847 5847 5846 5847 5848 5850 5850 5849 5850 5852 5852 5852 5851 5850 5849 5847 5846 5847 5845 5842 5839 5836 5833 5831 5829 5824 5820 5818 5816 5811 5809 5807 5805 5802 5798 5794 5790 5787 5783 5779
5834 5836 5838 5839 5841 5842 5842 5843 5842 5841 5843 5844 5845 5846 5847 5848 5847 5846 5845 5844 5841 5840 5838 5838 5834 5832 5830 5827 5823 5822 5819 5816 5813 5811 5807 5804 5802 5797 5794 5790 5786 5781 5777 5772 5769
5828 5829 5832 5834 5835 5836 5836 5837 5834 5833 5835 5838 5840 5843 5842 5843 5842 5841 5839 5837 5835 5833 5830 5829 5827 5825 5825 5823 5818 5815 5813 5810 5807 5803 5801 5797 5794 5790 5786 5781 5777 5773 5769 5765 5761
5822 5821 5824 5825 5828 5829 5829 5830 5828 5829 5827 5828 5831 5837 5837 5835 5835 5831 5832 5830 5828 5826 5824 5822 5821 5818 5817 5815 5812 5810 5809 5805 5801 5797 5793 5790 5785 5781 5778 5775 5771 5767 5763 5758 5753
5813 5812 5812 5813 5817 5819 5821 5822 5823 5819 5821 5820 5822 5827 5829 5828 5826 5825 5823 5821 5819 5818 5817 5816 5814 5812 5811 5808 5804 5802 5801 5799 5795 5792 5787 5783 5778 5774 5770 5767 5765 5760 5757 5751 5748
5803 5804 5802 5802 5805 5808 5810 5811 5813 5812 5811 5812 5814 5817 5820 5819 5818 5817 5815 5814 5812 5811 5810 5808 5807 5804 5804 5802 5798 5796 5794 5790 5787 5783 5779 5775 5772 5768 5764 5760 5757 5753 5750 5745 5739
5794 5795 5795 5796 5797 5800 5803 5803 5804 5804 5804 5803 5805 5808 5810 5811 5810 5808 5806 5807 5806 5804 5802 5801 5800 5798 5796 5795 5792 5791 5788 5784 5781 5777 5773 5769 5765 5762 5758 5755 5751 5747 5741 5736 5730
Wind_Speed
4 3 3 3 7 9 11 12 12 12 11 11 10 9 8 7 6 5 3 3 5 6 8 10 7 6 5 2 7 11 14 17 18 16 17 18 18 18 18 10 10 11 14 14 13
3 3 2 2 4 8 10 12 12 12 11 10 8 6 5 7 7 6 5 4 5 6 7 8 8 7 6 6 7 10 13 15 15 16 15 16 20 24 16 13 15 17 15 12 11
2 1 3 3 5 7 10 11 11 11 11 9 7 5 5 7 8 7 5 6 7 7 8 9 8 7 7 9 7 8 10 13 15 16 18 21 23 25 20 18 16 17 14 15 17
1 0 4 5 5 7 9 10 10 10 9 7 6 6 7 7 7 8 7 6 7 8 7 7 5 5 6 8 7 10 10 12 14 16 17 18 25 26 19 18 16 18 14 14 17
1 1 4 5 6 7 8 9 9 8 8 7 7 7 7 7 7 8 8 9 9 8 7 5 4 5 6 5 7 9 12 15 16 18 19 19 25 23 16 16 17 20 16 15 16
2 2 4 5 6 6 7 7 7 7 7 7 7 7 7 7 7 8 9 9 8 8 8 7 7 8 7 5 6 10 12 17 16 20 22 25 25 23 19 17 16 20 17 15 18
4 3 3 4 6 6 6 6 6 6 7 7 7 7 7 6 8 8 8 9 7 7 6 6 7 8 9 7 6 8 9 11 18 21 23 24 21 19 18 13 16 19 16 18 19
4 3 3 3 4 5 5 6 6 6 5 5 5 6 6 6 8 9 9 8 7 9 10 10 9 9 9 11 9 9 9 18 21 23 25 25 22 15 16 16 14 16 17 19 22
5 5 4 4 4 4 5 5 5 5 4 5 5 6 6 5 6 8 10 9 10 11 11 11 13 13 14 14 14 15 18 20 18 22 25 27 25 21 25 23 18 21 20 25 29
4 5 6 7 6 5 5 5 5 6 7 7 7 7 8 8 9 9 11 10 10 12 11 10 11 12 14 16 19 20 22 22 21 22 26 27 29 28 22 29 30 27 28 29 32
5 5 5 5 5 6 7 8 8 8 8 9 9 10 10 9 8 7 9 12 11 12 11 10 13 13 14 15 17 19 21 21 22 24 27 30 33 33 27 25 29 27 28 31 33
6 6 5 5 4 4 5 6 7 7 8 9 9 7 7 7 7 8 9 11 11 9 11 13 14 14 14 16 17 18 20 19 20 23 24 28 28 27 26 29 27 31 31 35 37
8 8 7 6 5 6 8 8 7 6 7 7 7 7 8 10 8 8 11 13 11 11 13 13 13 14 16 18 18 19 20 21 21 23 25 27 28 25 23 24 27 32 36 36 36
9 9 8 8 8 10 10 9 9 10 9 8 9 10 9 8 8 10 12 12 11 12 14 10 13 13 14 16 17 18 21 20 22 22 24 24 29 28 29 28 29 32 34 36 39
11 11 10 10 11 12 10 10 11 11 10 11 12 12 10 9 10 11 13 13 12 11 12 10 12 14 15 17 19 22 24 26 26 26 26 28 28 28 26 27 33 37 40 42 45
13 12 11 12 14 12 13 13 13 14 14 12 13 13 12 13 12 13 14 11 10 10 12 9 12 12 16 20 22 25 26 26 28 25 25 27 29 27 26 27 29 29 29 27 32
15 14 13 13 13 13 15 15 15 15 15 16 16 16 15 16 15 14 15 13 10 11 14 17 13 17 20 22 25 27 29 29 24 25 26 27 29 25 23 22 28 28 26 25 27
18 16 14 14 13 14 16 17 16 16 15 15 17 17 18 17 17 15 14 15 14 16 14 14 16 21 24 27 31 29 30 30 31 28 26 26 30 30 29 27 26 23 20 27 29
19 18 18 17 16 16 18 19 17 17 17 19 19 19 19 18 17 18 20 20 20 18 18 20 23 27 30 32 33 34 34 30 31 29 30 28 28 31 30 32 29 28 28 28 26
17 17 17 17 17 18 19 22 21 20 20 20 19 21 22 21 21 22 22 24 25 24 22 26 29 29 30 30 31 32 31 28 27 30 32 31 30 31 32 31 29 31 31 30 33
21 20 18 18 18 19 21 23 24 23 21 21 22 24 23 24 24 24 26 28 29 29 28 30 33 34 34 33 31 25 27 29 29 29 32 33 34 34 34 32 32 32 31 33 37
25 24 22 22 22 21 22 23 26 28 26 26 26 24 25 24 25 27 29 28 30 33 34 33 36 35 32 33 31 27 26 27 31 31 32 34 35 36 35 34 32 33 34 36 36
29 29 28 26 25 25 25 26 30 33 32 30 29 25 26 27 28 29 30 33 35 37 38 37 35 35 31 30 30 28 29 31 32 34 34 36 37 37 36 35 35 36 34 37 35
35 37 35 35 32 32 31 30 33 33 36 36 35 27 27 29 29 34 34 36 35 34 34 34 34 34 32 30 30 30 29 31 34 36 38 37 38 37 36 35 35 35 33 34 35
38 40 41 41 39 39 39 38 35 39 38 39 37 31 28 31 32 34 36 36 35 35 34 34 32 31 29 30 33 33 31 29 29 33 35 33 31 31 32 33 33 30 34 38 42
34 35 38 37 32 30 32 37 39 41 43 41 39 35 30 31 32 35 35 34 34 34 34 33 31 31 29 27 30 30 28 28 31 30 30 29 28 30 31 28 31 32 33 40 44
21 23 26 29 28 26 25 27 29 37 41 41 39 35 32 31 31 32 34 31 31 32 31 32 31 32 31 29 30 27 26 28 29 31 33 32 31 28 28 27 31 40 41 42 45
Wind_Direction
253 275 259 224 210 199 193 189 189 193 193 193 189 189 198 210 214 205 211 248 271 272 276 277 275 265 283 249 228 234 230 241 251 245 261 274 284 295 309 328 346 359 6 21 28
240 287 239 197 187 185 181 181 185 185 180 178 179 189 209 217 210 207 232 271 295 293 286 287 283 275 283 250 241 230 238 255 265 267 268 282 299 311 319 332 348 345 360 8 17
242 298 185 165 166 167 173 176 178 175 171 177 185 206 233 231 220 220 248 276 294 307 310 300 280 269 267 266 261 267 264 282 277 280 284 296 308 314 323 333 345 347 11 14 14
240 51 161 155 151 162 165 170 175 175 181 195 215 242 252 236 213 226 250 269 297 303 308 305 289 275 274 289 292 278 286 293 279 286 274 278 303 305 317 326 334 336 1 12 16
205 139 162 158 156 158 164 171 179 184 197 216 240 250 240 228 220 236 267 282 288 288 286 289 268 242 235 256 281 290 298 302 300 296 289 284 288 289 311 312 325 332 343 351 347
172 166 161 174 170 171 175 184 190 197 213 231 238 235 229 228 238 253 262 272 275 285 290 287 265 259 255 253 274 285 296 294 299 296 291 283 278 299 308 309 327 331 331 330 323
173 167 169 180 191 193 196 201 209 217 225 228 233 237 239 242 247 258 264 259 261 264 266 269 272 280 285 283 268 271 288 283 281 271 271 276 294 306 302 323 318 309 312 308 312
171 167 173 170 179 193 198 206 210 213 218 224 235 251 258 263 266 261 257 262 272 272 266 267 267 268 274 276 277 274 239 245 263 276 283 292 303 297 288 292 314 310 308 308 309
212 205 197 192 193 194 194 199 202 200 209 227 237 245 251 257 265 277 276 271 273 271 273 280 284 283 285 285 278 266 264 263 266 274 284 292 298 290 293 290 283 291 294 299 307
210 216 221 223 220 217 219 224 227 233 234 235 241 248 253 259 269 280 281 274 276 274 269 270 274 282 286 289 291 286 287 284 283 261 269 275 280 284 283 287 290 286 289 300 301
213 217 217 219 222 228 233 235 238 239 243 247 250 253 260 261 255 268 281 282 281 280 284 286 282 288 291 290 285 283 279 276 276 274 265 269 272 279 283 289 294 291 294 296 301
220 216 216 219 213 213 214 220 225 234 244 245 246 245 250 251 253 270 278 272 271 282 286 283 288 293 296 295 293 288 288 288 284 283 280 281 282 284 292 296 298 292 294 298 301
230 227 227 228 222 223 222 222 213 214 220 229 232 239 247 256 260 270 273 273 277 285 278 281 293 299 301 302 295 290 292 293 295 294 290 290 292 295 292 285 284 286 289 291 293
243 240 234 235 232 231 230 227 214 207 219 231 243 247 256 262 269 274 273 272 279 280 284 302 305 307 303 304 306 309 304 295 296 296 292 291 291 287 287 281 276 275 277 279 283
252 249 242 236 239 240 239 234 235 229 230 239 244 249 245 254 264 267 271 278 280 283 295 311 308 309 314 314 310 305 305 302 302 297 299 299 294 292 295 294 282 275 274 277 282
259 257 252 243 249 247 247 244 244 244 243 247 254 260 262 267 270 281 286 287 285 283 284 300 314 315 318 316 312 307 303 301 300 298 297 299 300 304 299 293 291 293 295 294 293
262 260 258 254 254 250 249 246 246 247 253 260 265 266 269 272 274 276 286 286 285 285 290 297 307 317 314 309 308 307 304 301 295 296 296 294 291 304 298 295 296 288 290 297 299
260 262 263 259 255 252 251 252 254 258 260 264 265 265 266 270 270 269 278 286 271 270 275 286 290 305 307 305 308 309 307 308 306 304 299 299 303 308 310 310 312 296 296 300 305
259 259 257 257 256 253 255 256 261 265 265 266 270 272 276 275 269 273 284 293 293 290 294 293 292 299 306 310 313 309 307 306 304 302 302 303 305 304 310 312 312 304 303 307 303
256 259 259 259 256 256 257 261 261 262 266 269 272 274 278 285 289 293 295 296 293 294 296 297 298 301 305 305 304 305 304 305 303 302 304 307 308 310 311 315 313 310 308 308 314
260 258 260 262 262 261 261 262 264 264 263 263 267 272 278 281 285 288 289 290 292 293 296 300 301 306 310 307 307 305 302 303 303 303 304 310 310 311 312 313 311 310 310 310 310
259 260 259 259 259 260 260 265 267 266 264 261 260 264 269 273 277 281 285 287 290 294 295 296 297 300 301 303 304 306 303 300 299 301 303 305 308 309 311 312 309 308 307 306 307
265 264 262 260 262 263 262 262 264 267 268 267 266 268 271 272 275 277 281 282 284 288 291 293 294 294 296 300 299 302 302 304 302 303 306 305 309 306 307 307 305 307 305 306 306
264 268 266 265 262 261 263 262 266 267 268 270 270 269 272 275 273 274 274 277 283 286 288 290 292 294 297 297 294 290 294 298 299 303 304 305 303 302 302 300 302 304 308 306 309
265 267 267 267 265 262 260 260 260 266 266 268 270 271 271 275 278 280 282 286 288 289 290 291 293 293 292 291 289 291 295 295 294 297 298 298 297 298 301 304 310 308 311 316 310
261 262 264 265 266 264 261 258 256 259 264 266 268 270 268 271 273 277 281 282 283 286 287 289 291 291 293 291 290 294 297 296 298 299 297 299 300 302 303 304 302 309 303 300 306
253 256 260 265 267 267 264 262 257 254 256 263 267 270 269 270 270 271 274 280 281 283 285 288 292 293 291 289 294 301 299 299 299 300 300 303 306 308 308 302 295 306 296 307 304